Waarnemingen

Advertentie
Mijn weer
Moron de la Frontera, Spanje (8397): temperatuur & dauwpunt: 15.02.2018 14:00:00 - 21.02.2018 14:00:00 (CET)Moron de la Frontera, Spanje (8397): windsnelheid: 15.02.2018 14:00:00 - 21.02.2018 14:00:00 (CET)Moron de la Frontera, Spanje (8397): windrichting: 15.02.2018 14:00:00 - 21.02.2018 14:00:00 (CET)Moron de la Frontera, Spanje (8397): luchtdruk: 15.02.2018 14:00:00 - 21.02.2018 14:00:00 (CET)Moron de la Frontera, Spanje (8397): zicht: 15.02.2018 14:00:00 - 21.02.2018 14:00:00 (CET)
Datum & Tijd tt [°C] td [°C] ff [km/u] ff [kn] dd ppp [hPa] vv [km]
21.02.2018 14:00:00 - - - - - - -
21.02.2018 13:00:00 15,7 3,2 16 9 NO 1009,8 30
21.02.2018 12:00:00 - - - - - - -
21.02.2018 11:00:00 - - - - - - -
21.02.2018 10:00:00 11,5 4,9 11 6 ONO 1010,9 25
21.02.2018 09:00:00 - - - - - - -
21.02.2018 08:00:00 - - - - - - -
21.02.2018 07:00:00 6,5 3,8 5 3 NNO 1010,5 25
21.02.2018 06:00:00 - - - - - - -
21.02.2018 05:00:00 - - - - - - -
21.02.2018 04:00:00 7,3 4,3 2 1 O 1011,7 25
21.02.2018 03:00:00 - - - - - - -
21.02.2018 02:00:00 - - - - - - -
21.02.2018 01:00:00 6,4 4,1 8 4 ZZO 1013,6 30
21.02.2018 00:00:00 - - - - - - -
20.02.2018 23:00:00 - - - - - - -
20.02.2018 22:00:00 10,3 5,3 5 3 ZZO 1014,4 30
20.02.2018 21:00:00 - - - - - - -
20.02.2018 20:00:00 - - - - - - -
20.02.2018 19:00:00 18,1 4,3 4 2 O 1014,0 35
20.02.2018 18:00:00 - - - - - - -
20.02.2018 17:00:00 - - - - - - -
20.02.2018 16:00:00 19,6 5,6 15 8 ONO 1014,8 30
20.02.2018 15:00:00 - - - - - - -
20.02.2018 14:00:00 - - - - - - -
20.02.2018 13:00:00 17,0 5,9 18 10 ONO 1017,3 20
20.02.2018 12:00:00 - - - - - - -
20.02.2018 11:00:00 - - - - - - -
20.02.2018 10:00:00 8,4 4,8 4 2 NNO 1018,5 15
20.02.2018 09:00:00 - - - - - - -
20.02.2018 08:00:00 - - - - - - -
20.02.2018 07:00:00 4,2 2,4 2 1 OZO 1017,6 15
20.02.2018 06:00:00 - - - - - - -
20.02.2018 05:00:00 - - - - - - -
20.02.2018 04:00:00 4,1 2,0 8 4 ZZO 1017,6 15
20.02.2018 03:00:00 - - - - - - -
20.02.2018 02:00:00 - - - - - - -
20.02.2018 01:00:00 6,5 3,5 5 3 Z 1017,7 20
20.02.2018 00:00:00 - - - - - - -
19.02.2018 23:00:00 - - - - - - -
19.02.2018 22:00:00 8,6 3,8 5 3 ZZO 1017,7 20
19.02.2018 21:00:00 - - - - - - -
19.02.2018 20:00:00 - - - - - - -
19.02.2018 19:00:00 16,0 1,7 2 1 ONO 1016,7 25
19.02.2018 18:00:00 - - - - - - -
19.02.2018 17:00:00 - - - - - - -
19.02.2018 16:00:00 17,3 2,1 15 8 NO 1016,8 25
19.02.2018 15:00:00 - - - - - - -
19.02.2018 14:00:00 - - - - - - -
19.02.2018 13:00:00 13,8 7,6 11 6 NO 1018,7 12
19.02.2018 12:00:00 - - - - - - -
19.02.2018 11:00:00 - - - - - - -
19.02.2018 10:00:00 8,3 7,9 5 3 NO 1019,0 3,0
19.02.2018 09:00:00 - - - - - - -
19.02.2018 08:00:00 - - - - - - -
19.02.2018 07:00:00 5,1 4,5 4 2 ZO 1018,3 4,0
19.02.2018 06:00:00 - - - - - - -
19.02.2018 05:00:00 - - - - - - -
19.02.2018 04:00:00 6,5 5,6 4 2 ZZO 1018,1 5
19.02.2018 03:00:00 - - - - - - -
19.02.2018 02:00:00 - - - - - - -
19.02.2018 01:00:00 7,2 5,8 8 4 Z 1019,2 7
19.02.2018 00:00:00 - - - - - - -
18.02.2018 23:00:00 - - - - - - -
18.02.2018 22:00:00 9,9 7,0 5 3 ZW 1019,3 15
18.02.2018 21:00:00 - - - - - - -
18.02.2018 20:00:00 - - - - - - -
18.02.2018 19:00:00 16,3 8,3 8 4 WZW 1018,5 15
18.02.2018 18:00:00 - - - - - - -
18.02.2018 17:00:00 - - - - - - -
18.02.2018 16:00:00 18,2 7,6 5 3 WNW 1018,8 15
18.02.2018 15:00:00 - - - - - - -
18.02.2018 14:00:00 - - - - - - -
18.02.2018 13:00:00 15,8 9,0 4 2 Z 1020,7 9
18.02.2018 12:00:00 - - - - - - -
18.02.2018 11:00:00 - - - - - - -
18.02.2018 10:00:00 8,7 7,9 4 2 NNO 1021,8 5
18.02.2018 09:00:00 - - - - - - -
18.02.2018 08:00:00 - - - - - - -
18.02.2018 07:00:00 5,0 4,4 0 0 N 1021,3 8
18.02.2018 06:00:00 - - - - - - -
18.02.2018 05:00:00 - - - - - - -
18.02.2018 04:00:00 6,0 5,3 5 3 ZZO 1021,7 9
18.02.2018 03:00:00 - - - - - - -
18.02.2018 02:00:00 - - - - - - -
18.02.2018 01:00:00 6,6 5,4 5 3 Z 1023,0 9
18.02.2018 00:00:00 - - - - - - -
17.02.2018 23:00:00 - - - - - - -
17.02.2018 22:00:00 9,9 6,8 4 2 ZW 1023,2 15
17.02.2018 21:00:00 - - - - - - -
17.02.2018 20:00:00 - - - - - - -
17.02.2018 19:00:00 14,6 8,3 8 4 WZW 1022,4 15
17.02.2018 18:00:00 - - - - - - -
17.02.2018 17:00:00 - - - - - - -
17.02.2018 16:00:00 16,9 9,1 5 3 WNW 1022,3 15
17.02.2018 15:00:00 - - - - - - -
17.02.2018 14:00:00 - - - - - - -
17.02.2018 13:00:00 14,9 9,5 8 4 W 1024,4 8
17.02.2018 12:00:00 - - - - - - -
17.02.2018 11:00:00 - - - - - - -
17.02.2018 10:00:00 10,2 9,9 5 3 ZZW 1024,9 2,7
17.02.2018 09:00:00 - - - - - - -
17.02.2018 08:00:00 - - - - - - -
17.02.2018 07:00:00 6,8 6,4 2 1 W 1024,2 -
17.02.2018 06:00:00 - - - - - - -
17.02.2018 05:00:00 - - - - - - -
17.02.2018 04:00:00 7,2 6,6 9 5 ZZW 1023,1 3,0
17.02.2018 03:00:00 - - - - - - -
17.02.2018 02:00:00 - - - - - - -
17.02.2018 01:00:00 9,0 7,9 9 5 ZZW 1024,0 7
17.02.2018 00:00:00 - - - - - - -
16.02.2018 23:00:00 - - - - - - -
16.02.2018 22:00:00 10,9 8,1 5 3 ZZW 1023,7 15
16.02.2018 21:00:00 - - - - - - -
16.02.2018 20:00:00 - - - - - - -
16.02.2018 19:00:00 18,0 6,5 0 0 N 1021,8 25
16.02.2018 18:00:00 - - - - - - -
16.02.2018 17:00:00 - - - - - - -
16.02.2018 16:00:00 20,9 8,2 5 3 N 1021,2 20
16.02.2018 15:00:00 - - - - - - -
16.02.2018 14:00:00 - - - - - - -
16.02.2018 13:00:00 17,3 8,7 5 3 NNO 1023,7 12
16.02.2018 12:00:00 - - - - - - -
16.02.2018 11:00:00 - - - - - - -
16.02.2018 10:00:00 9,1 7,7 4 2 NNO 1024,6 7
16.02.2018 09:00:00 - - - - - - -
16.02.2018 08:00:00 - - - - - - -
16.02.2018 07:00:00 6,0 5,3 4 2 ONO 1023,9 9
16.02.2018 06:00:00 - - - - - - -
16.02.2018 05:00:00 - - - - - - -
16.02.2018 04:00:00 6,7 5,7 2 1 N 1024,5 9
16.02.2018 03:00:00 - - - - - - -
16.02.2018 02:00:00 - - - - - - -
16.02.2018 01:00:00 8,3 5,6 0 0 N 1024,9 15
16.02.2018 00:00:00 - - - - - - -
15.02.2018 23:00:00 - - - - - - -
15.02.2018 22:00:00 12,1 5,9 4 2 OZO 1024,9 20
15.02.2018 21:00:00 - - - - - - -
15.02.2018 20:00:00 - - - - - - -
15.02.2018 19:00:00 17,5 6,7 8 4 ONO 1024,3 25
15.02.2018 18:00:00 - - - - - - -
15.02.2018 17:00:00 - - - - - - -
15.02.2018 16:00:00 19,3 7,1 15 8 NO 1024,0 25
15.02.2018 15:00:00 - - - - - - -
15.02.2018 14:00:00 - - - - - - -

tt = temperatuur
td = dauwpunt
ff = windsnelheid
dd = windrichting
ppp = luchtdruk
vv = zicht

Weerstations in de omgeving